Facebook Twitter

Wetterstation Parma

aktuelles Wetter
  Temperatur Wetter Niederschlag Luftdruck Wind
So, 17:50 Uhr 30° - - 1014 hPa 10 km/h O
So, 16:50 Uhr 30° - - 1015 hPa 13 km/h O
So, 15:50 Uhr 31° - - 1015 hPa 10 km/h
So, 14:50 Uhr 30° - - 1016 hPa 8 km/h
So, 13:50 Uhr 30° - - 1017 hPa 10 km/h
So, 12:50 Uhr 29° - - 1017 hPa 11 km/h O
So, 11:50 Uhr 28° - - 1017 hPa 10 km/h O
So, 10:50 Uhr 28° - - 1017 hPa 8 km/h O
So, 09:50 Uhr 26° - - 1017 hPa 3 km/h
So, 08:50 Uhr 23° - - 1017 hPa 3 km/h
So, 06:52 Uhr 20° - - 1017 hPa 8 km/h SW
Sa, 22:50 Uhr 22° - - 1016 hPa 13 km/h O
Sa, 21:50 Uhr 25° - - 1016 hPa 8 km/h O
Sa, 20:50 Uhr 26° - - 1016 hPa 8 km/h NO
Sa, 19:50 Uhr 28° - - 1016 hPa 8 km/h NO
Sa, 18:50 Uhr 28° - - 1015 hPa 5 km/h
Sa, 17:50 Uhr 29° heiter - 1016 hPa 3 km/h
Sa, 16:50 Uhr 29° heiter - 1016 hPa 5 km/h
Sa, 15:50 Uhr 28° heiter - 1016 hPa 5 km/h
Sa, 14:50 Uhr 28° heiter - 1017 hPa 5 km/h

Alle Zeitangaben MESZ